CAPE
1100 1116 1075 1664 1472 1537 1635 1679 1798 1767 1690 1528 1476 1450 1396 1396 1395 1332 1290 1239 1256 1310 1389 1319 1189 1027 962 867 729 686 652 759 851 751 581 478 370 315 370 445 273 269 109 53 108 203 156 348 369 399 382 387 311 14 0 8 58 6 3 6 133 178 267
1058 1131 1169 1184 1256 1158 1141 1370 1495 1558 1482 1365 1233 1274 1275 1218 1151 1290 1348 1254 1270 1271 1223 1113 1044 1092 1052 917 777 665 649 646 731 806 617 468 406 344 299 337 346 250 342 195 421 320 267 236 240 288 278 245 254 27 0 0 17 5 17 1 39 122 212
954 961 1019 1112 1032 1061 1125 1121 1258 1370 1395 1300 1267 1168 1242 1276 1232 1206 1236 1336 1313 1322 1223 1106 986 955 1038 1013 917 768 646 660 635 644 632 517 366 330 405 356 345 416 520 537 549 403 313 59 0 216 241 209 175 224 280 81 6 0 6 0 32 123 200
690 873 949 923 954 1126 1110 1062 1161 1043 1076 1144 1148 1119 1138 1179 1175 1118 1040 894 836 1024 987 938 972 949 902 996 966 879 766 689 614 513 525 552 413 298 426 510 460 542 596 621 590 512 349 238 120 67 245 224 186 205 210 255 23 189 5 18 30 51 141
186 459 674 668 627 897 1000 890 891 957 920 922 895 903 870 921 1010 1030 872 866 909 948 890 758 808 908 779 857 998 987 844 722 632 540 546 512 516 401 430 647 634 582 620 535 504 488 422 304 159 36 96 224 277 264 272 219 82 155 16 46 16 34 130
0 9 48 570 537 507 693 984 967 858 729 727 722 779 717 782 832 803 866 874 836 901 942 924 910 849 886 945 815 849 808 791 659 583 586 590 627 754 673 661 815 655 578 529 454 425 401 312 219 140 35 18 9 117 190 231 300 236 21 4 32 2 147
0 2 0 14 226 453 546 501 768 851 733 611 619 613 708 758 792 786 751 774 800 794 877 914 857 833 833 883 710 676 609 769 726 619 656 716 740 750 755 664 646 854 751 596 472 372 311 254 220 167 127 92 21 6 26 155 211 173 15 1 11 4 50
2 3 3 2 0 11 92 96 212 600 867 719 603 588 555 704 772 802 815 844 852 788 659 753 787 720 724 736 632 694 634 640 654 724 657 662 630 618 698 757 644 611 610 648 537 427 294 204 147 131 94 80 53 10 20 68 196 149 221 1 28 1 5
6 4 3 0 0 0 0 6 9 136 582 885 742 711 763 767 724 725 771 835 874 840 781 602 516 458 821 752 694 661 652 631 483 506 594 533 579 497 551 641 686 684 688 642 490 443 364 266 175 105 86 8 30 2 8 76 98 133 225 120 48 10 14
10 10 9 4 0 0 0 0 2 0 143 310 390 772 850 800 763 753 728 771 798 812 766 560 376 378 624 603 533 656 703 612 501 435 423 404 420 542 579 537 473 562 653 655 672 563 416 302 205 151 130 116 106 84 58 0 5 180 152 87 69 28 2
3 9 13 11 6 0 0 0 0 0 0 121 150 210 671 797 751 751 705 674 708 710 717 646 608 506 429 523 576 595 627 600 586 610 546 638 542 522 753 717 588 623 702 607 592 582 568 449 297 229 184 166 161 161 58 18 40 192 160 57 30 30 3
5 5 7 11 11 8 1 0 0 0 0 0 44 85 127 520 691 736 663 516 654 639 705 691 619 520 462 428 470 537 573 578 567 556 573 619 602 514 520 706 688 602 529 566 595 664 661 530 398 271 198 186 169 120 119 70 46 66 154 41 22 4 0
1 0 1 2 4 5 10 10 5 4 5 0 0 3 57 155 354 612 647 554 491 569 566 655 684 638 551 522 490 525 504 512 557 550 513 547 512 522 625 580 624 610 650 602 641 674 670 687 539 380 259 213 163 126 100 18 4 204 236 240 45 191 35
0 0 0 0 1 2 6 7 13 17 12 6 3 2 8 78 191 380 429 385 487 523 562 560 672 659 566 495 409 384 407 405 423 490 464 457 414 408 400 446 569 594 561 579 608 653 672 699 573 416 303 221 158 152 144 67 4 22 83 213 284 235 29
0 0 0 0 4 4 4 8 12 14 10 12 12 4 0 9 56 134 207 191 365 446 438 511 552 505 507 534 484 436 454 398 339 333 353 354 443 519 553 520 617 679 667 595 771 711 702 672 510 379 308 345 391 331 271 328 155 117 127 161 133 10 0
0 0 0 3 2 3 8 6 7 3 0 0 1 0 0 0 2 20 93 153 192 356 405 397 385 351 394 464 444 409 410 422 446 407 342 360 370 373 475 479 486 466 425 442 557 598 639 619 496 361 368 418 520 477 544 582 215 126 116 119 53 2 0
0 0 1 0 0 1 6 0 1 1 2 0 0 0 0 0 0 0 0 0 160 274 341 68 354 345 322 6 255 333 336 436 377 369 402 357 346 357 391 418 396 397 286 364 495 541 542 605 539 412 403 505 482 556 546 512 379 290 187 69 74 0 0
0 0 0 0 0 2 0 0 1 4 4 4 4 3 1 1 0 0 0 0 0 0 5 0 120 298 251 136 273 274 250 290 291 270 283 313 328 352 421 487 524 480 380 446 444 458 539 569 536 533 450 492 554 548 547 345 210 217 95 4 0 0 7
0 0 0 0 2 2 3 4 3 4 6 6 8 8 7 5 6 2 0 0 0 0 0 0 0 32 124 68 180 41 1 1 5 138 256 320 340 350 419 495 437 417 384 354 376 463 511 578 528 505 536 482 486 533 490 483 442 368 235 182 163 59 13
2 1 2 3 4 5 6 7 8 7 7 6 8 7 7 4 5 4 3 1 0 0 1 0 0 0 21 79 169 1 1 2 2 170 136 160 148 188 331 405 456 272 282 360 332 277 480 488 519 516 502 490 540 426 494 403 319 406 284 213 195 198 132
6 6 4 3 3 2 3 7 10 10 10 9 7 6 7 4 3 3 2 2 2 1 3 0 0 0 0 1 12 96 113 8 4 2 185 101 144 207 283 420 392 413 384 331 335 416 462 524 509 524 503 425 400 476 494 516 153 285 322 204 195 158 155
6 4 4 2 0 0 1 6 8 9 8 10 12 8 7 4 0 0 0 2 2 4 7 0 2 2 1 1 1 1 13 89 1 4 4 220 73 174 224 314 288 345 280 256 335 397 416 458 512 535 495 402 366 400 395 456 409 273 243 234 128 58 88
7 6 3 3 0 0 0 0 2 4 5 4 6 10 5 3 1 0 2 0 1 4 6 4 4 0 0 2 1 1 1 1 1 2 4 4 6 39 72 238 323 373 241 298 417 488 496 504 483 426 438 350 326 390 440 432 405 349 213 221 199 182 51
5 5 8 8 8 3 0 0 0 2 5 0 0 9 8 2 2 2 2 2 2 3 4 5 0 0 0 0 1 1 1 1 0 0 2 4 6 18 46 62 126 230 141 148 328 442 486 475 460 434 400 376 338 380 478 439 258 259 272 229 218 124 86
5 4 9 10 10 9 5 1 0 0 2 0 0 0 6 5 2 2 4 3 2 3 4 3 0 0 0 0 0 1 0 0 1 0 1 3 4 7 52 105 169 168 30 299 290 281 402 408 402 369 400 453 446 426 441 451 388 303 230 183 133 115 111
2 3 9 10 9 8 6 5 4 3 1 0 0 1 7 2 2 2 4 3 2 2 3 1 0 0 0 0 0 0 0 0 0 0 1 2 4 5 17 69 88 145 180 257 291 384 312 414 412 400 440 435 419 396 291 429 421 359 357 255 198 138 90
2 2 6 6 6 5 6 6 7 4 1 0 0 1 2 3 2 2 3 3 3 3 3 0 0 0 0 0 0 0 0 0 0 0 0 0 4 13 20 32 69 92 141 196 252 277 329 361 437 448 411 352 238 295 395 446 500 358 198 156 130 88 75
1 0 0 0 0 0 1 0 1 5 4 2 3 4 2 1 2 1 1 1 2 2 2 0 0 0 0 0 0 0 0 3 2 1 1 2 5 8 10 15 39 79 97 118 160 0 0 247 305 355 326 222 192 191 260 444 354 223 69 163 114 88 97
0 0 0 0 0 0 0 0 0 0 1 3 6 3 0 0 0 0 0 0 0 0 0 0 0 0 0 0 0 1 3 4 3 3 3 4 2 2 3 3 9 34 99 82 140 44 166 199 317 365 349 344 350 338 351 349 202 186 186 147 90 91 107
0 0 0 0 0 0 0 0 0 1 0 1 2 3 1 0 0 0 0 0 0 0 0 0 0 0 0 0 0 1 2 4 3 2 2 2 2 1 2 4 6 2 4 74 52 69 171 219 266 316 346 384 434 505 448 323 268 244 191 123 117 120 118
0 0 0 0 0 0 0 0 1 3 3 2 0 1 2 0 0 0 0 0 1 0 0 0 0 0 0 0 0 0 1 2 2 1 1 0 0 0 1 2 2 0 1 13 84 143 208 203 94 108 243 244 397 405 284 233 219 200 180 174 179 191 121
0 0 0 0 0 0 0 0 0 0 0 0 0 0 1 2 0 1 1 0 0 0 0 0 0 0 0 0 0 0 1 2 2 1 1 0 0 0 0 0 1 0 0 1 20 23 125 138 92 96 102 147 198 216 255 253 240 202 150 154 159 179 212
0 0 0 0 0 0 0 0 0 0 0 0 0 0 0 0 1 1 2 1 0 0 0 0 0 0 0 0 0 0 0 1 1 0 0 0 0 0 0 0 1 0 0 0 4 50 261 274 140 166 170 123 217 207 230 230 210 211 258 235 155 126 179
0 0 0 0 0 0 0 0 0 0 0 0 0 0 0 0 0 0 0 0 0 0 0 0 0 0 0 0 0 0 0 0 0 0 1 3 1 0 0 1 0 0 0 0 72 226 265 139 61 137 203 273 242 212 171 162 162 172 201 196 147 139 179
0 0 0 0 0 0 0 0 0 0 0 0 0 0 0 0 0 0 0 0 0 0 0 0 0 0 0 0 0 0 0 0 0 2 1 0 2 2 2 2 0 0 2 39 168 264 240 246 103 52 10 96 120 122 99 100 100 103 109 127 132 128 128
0 0 0 0 0 0 0 0 0 0 0 0 0 0 0 0 0 0 0 0 0 0 0 0 0 0 0 0 0 2 2 0 0 1 1 0 3 2 2 3 5 11 21 44 31 40 36 12 18 19 29 33 55 58 72 71 79 84 82 90 97 155 153
0 0 0 0 0 0 0 0 0 0 0 0 0 0 0 0 0 0 0 0 0 0 0 0 0 0 0 0 0 1 1 1 2 2 2 1 0 1 2 3 12 34 27 61 53 38 32 11 1 18 41 50 70 65 77 92 99 125 132 143 144 146 146
Wind_Speed
18 16 18 20 22 22 23 24 25 25 26 27 27 26 27 27 28 28 28 29 29 29 29 29 27 25 25 27 30 29 28 25 22 18 17 18 16 14 15 13 14 19 20 nan 22 23 24 23 20 17 15 13 14 nan nan nan nan nan nan nan 12 11 9
21 21 19 23 23 21 23 24 27 27 27 27 26 26 25 26 25 26 27 28 29 29 29 27 24 22 22 24 26 27 28 27 25 21 19 16 14 13 18 14 15 17 19 19 22 24 25 26 22 19 16 15 14 nan nan nan nan nan nan nan nan 12 11
22 22 22 22 22 23 25 25 25 26 27 27 26 27 26 27 26 26 28 29 28 28 27 25 23 21 19 21 23 24 24 26 25 23 20 18 16 16 16 17 17 17 18 20 20 22 24 nan nan 20 18 16 13 13 15 nan nan nan nan nan nan 13 12
24 23 23 24 23 23 24 25 26 25 25 25 27 27 28 28 27 26 27 30 31 30 27 25 23 21 20 20 22 23 22 21 22 22 20 19 19 17 17 18 16 17 17 18 19 20 23 24 24 nan 22 18 15 17 15 16 nan 14 nan nan nan nan 13
25 25 24 24 24 24 23 24 25 26 26 26 27 28 27 26 26 25 27 30 30 29 27 26 24 23 23 21 20 21 21 19 17 18 19 19 19 19 17 18 17 17 15 16 18 20 20 21 22 nan nan 22 21 19 22 19 nan 17 nan nan nan nan 13
nan nan nan 24 25 24 23 23 24 24 25 25 25 26 26 26 26 23 24 28 30 29 27 26 25 25 26 23 19 19 20 20 19 17 17 18 20 21 18 18 19 18 16 16 19 19 19 23 23 22 nan nan nan 23 22 22 20 21 nan nan nan nan 14
nan nan nan nan 24 23 24 23 22 23 24 25 25 25 26 26 27 27 25 25 27 28 27 25 25 24 21 20 19 17 17 18 18 18 16 16 19 18 17 18 17 19 19 20 20 21 21 24 22 22 25 nan nan nan nan 22 23 24 nan nan nan nan nan
nan nan nan nan nan nan nan nan 22 22 24 24 25 25 25 26 26 26 27 25 24 25 26 24 24 25 20 18 19 17 15 16 16 20 19 16 15 15 16 18 18 19 20 21 22 20 23 22 23 25 nan nan nan nan nan nan 24 17 20 nan nan nan nan
nan nan nan nan nan nan nan nan nan 20 20 22 23 25 25 26 24 25 25 23 21 21 22 24 25 24 19 18 17 17 16 18 18 18 19 17 15 15 14 16 18 17 20 21 21 21 21 23 24 26 nan nan nan nan nan nan nan 18 19 19 nan nan nan
nan nan nan nan nan nan nan nan nan nan 19 18 18 22 23 24 23 22 23 23 21 20 20 21 24 26 17 16 17 16 15 18 16 15 23 21 18 18 18 15 15 17 21 20 19 20 21 23 24 24 23 22 22 nan nan nan nan 22 19 nan nan nan nan
nan nan nan nan nan nan nan nan nan nan nan 16 17 17 19 21 21 20 20 20 21 20 20 20 24 25 20 16 16 15 15 17 16 18 22 23 21 22 18 16 18 19 21 21 19 20 21 23 24 24 24 23 24 21 nan nan nan 24 22 nan nan nan nan
nan nan nan nan nan nan nan nan nan nan nan nan nan nan 14 15 16 18 20 20 19 19 19 19 22 25 23 19 16 15 16 18 16 15 19 22 21 22 21 18 20 21 21 19 20 22 22 24 24 25 25 26 24 22 24 nan nan nan 24 nan nan nan nan
nan nan nan nan nan nan nan nan nan nan nan nan nan nan nan 14 13 14 17 20 20 19 19 20 22 23 22 20 19 18 17 19 17 15 16 19 21 24 23 19 20 22 23 22 21 22 22 23 25 25 26 26 25 24 nan nan nan 23 23 24 nan 25 nan
nan nan nan nan nan nan nan nan nan nan nan nan nan nan nan nan 14 15 14 17 20 19 19 19 21 21 19 18 18 18 17 18 17 17 17 17 20 22 23 22 22 22 23 23 23 23 23 23 25 26 26 26 25 24 23 nan nan nan nan 28 28 27 nan
nan nan nan nan nan nan nan nan nan nan nan nan nan nan nan nan nan 16 16 15 16 16 17 19 18 19 18 18 18 18 17 17 17 16 17 16 19 21 26 26 25 26 25 24 21 21 23 24 25 26 26 26 25 26 26 24 23 27 28 33 32 nan nan
nan nan nan nan nan nan nan nan nan nan nan nan nan nan nan nan nan nan nan 16 19 17 15 14 15 16 16 16 16 17 18 18 18 17 16 15 16 20 21 20 21 26 27 24 20 20 23 25 25 24 24 25 25 28 26 25 28 28 30 31 nan nan nan
nan nan nan nan nan nan nan nan nan nan nan nan nan nan nan nan nan nan nan nan 18 20 18 nan 19 18 16 nan 13 12 15 17 19 20 18 16 17 20 20 21 22 24 25 25 23 21 22 24 25 25 23 24 24 27 28 26 26 26 31 nan nan nan nan
nan nan nan nan nan nan nan nan nan nan nan nan nan nan nan nan nan nan nan nan nan nan nan nan 21 18 19 18 17 15 13 12 16 19 20 20 19 18 18 21 25 28 26 25 24 24 23 22 24 25 23 23 24 25 27 29 33 38 nan nan nan nan nan
nan nan nan nan nan nan nan nan nan nan nan nan nan nan nan nan nan nan nan nan nan nan nan nan nan nan 19 nan 17 nan nan nan nan 14 17 19 21 18 17 22 28 29 27 25 24 24 23 21 24 25 24 24 24 28 31 33 37 38 41 39 32 nan nan
nan nan nan nan nan nan nan nan nan nan nan nan nan nan nan nan nan nan nan nan nan nan nan nan nan nan nan nan 17 nan nan nan nan 12 14 17 19 20 20 22 28 31 29 27 24 23 22 22 25 24 24 25 27 33 30 29 34 36 37 40 36 32 33
nan nan nan nan nan nan nan nan nan nan nan nan nan nan nan nan nan nan nan nan nan nan nan nan nan nan nan nan nan nan 15 nan nan nan 11 14 19 21 21 22 24 26 29 28 26 26 25 22 24 24 24 27 30 32 31 29 34 34 34 38 37 33 33
nan nan nan nan nan nan nan nan nan nan nan nan nan nan nan nan nan nan nan nan nan nan nan nan nan nan nan nan nan nan nan nan nan nan nan 14 nan 20 23 25 25 25 28 27 27 26 25 22 24 24 25 29 30 31 32 31 33 35 35 36 35 nan nan
nan nan nan nan nan nan nan nan nan nan nan nan nan nan nan nan nan nan nan nan nan nan nan nan nan nan nan nan nan nan nan nan nan nan nan nan nan nan nan 25 25 25 22 23 21 21 22 21 21 24 27 30 30 31 30 29 30 33 35 34 32 32 nan
nan nan nan nan nan nan nan nan nan nan nan nan nan nan nan nan nan nan nan nan nan nan nan nan nan nan nan nan nan nan nan nan nan nan nan nan nan nan nan nan 26 25 25 22 21 21 21 21 20 21 23 26 28 30 31 29 30 33 34 33 31 32 nan
nan nan nan nan nan nan nan nan nan nan nan nan nan nan nan nan nan nan nan nan nan nan nan nan nan nan nan nan nan nan nan nan nan nan nan nan nan nan nan 23 25 24 nan 24 27 25 23 21 23 24 22 23 26 28 30 30 30 32 33 33 33 30 30
nan nan nan nan nan nan nan nan nan nan nan nan nan nan nan nan nan nan nan nan nan nan nan nan nan nan nan nan nan nan nan nan nan nan nan nan nan nan nan nan nan 25 24 22 26 26 24 26 27 25 22 21 23 27 27 24 27 28 30 30 31 30 nan
nan nan nan nan nan nan nan nan nan nan nan nan nan nan nan nan nan nan nan nan nan nan nan nan nan nan nan nan nan nan nan nan nan nan nan nan nan nan nan nan nan nan 24 26 28 27 25 25 30 33 28 29 28 27 28 28 26 25 27 29 31 nan nan
nan nan nan nan nan nan nan nan nan nan nan nan nan nan nan nan nan nan nan nan nan nan nan nan nan nan nan nan nan nan nan nan nan nan nan nan nan nan nan nan nan nan nan 25 25 nan nan 28 30 31 31 33 32 30 30 31 29 28 nan 30 31 nan nan
nan nan nan nan nan nan nan nan nan nan nan nan nan nan nan nan nan nan nan nan nan nan nan nan nan nan nan nan nan nan nan nan nan nan nan nan nan nan nan nan nan nan nan nan 24 nan 29 31 34 33 33 35 36 35 35 35 34 34 32 29 nan nan 34
nan nan nan nan nan nan nan nan nan nan nan nan nan nan nan nan nan nan nan nan nan nan nan nan nan nan nan nan nan nan nan nan nan nan nan nan nan nan nan nan nan nan nan nan nan nan 30 35 34 34 35 36 36 37 36 36 40 41 41 42 45 46 45
nan nan nan nan nan nan nan nan nan nan nan nan nan nan nan nan nan nan nan nan nan nan nan nan nan nan nan nan nan nan nan nan nan nan nan nan nan nan nan nan nan nan nan nan nan 29 32 33 nan 36 36 36 37 38 36 36 38 41 45 48 49 51 53
nan nan nan nan nan nan nan nan nan nan nan nan nan nan nan nan nan nan nan nan nan nan nan nan nan nan nan nan nan nan nan nan nan nan nan nan nan nan nan nan nan nan nan nan nan nan 34 32 nan nan 35 35 36 38 37 36 39 41 41 43 43 46 50
nan nan nan nan nan nan nan nan nan nan nan nan nan nan nan nan nan nan nan nan nan nan nan nan nan nan nan nan nan nan nan nan nan nan nan nan nan nan nan nan nan nan nan nan nan nan 32 32 35 33 33 33 36 38 35 37 40 43 44 44 44 46 48
nan nan nan nan nan nan nan nan nan nan nan nan nan nan nan nan nan nan nan nan nan nan nan nan nan nan nan nan nan nan nan nan nan nan nan nan nan nan nan nan nan nan nan nan nan 35 37 40 nan 34 34 36 36 37 39 44 48 50 44 41 42 42 43
nan nan nan nan nan nan nan nan nan nan nan nan nan nan nan nan nan nan nan nan nan nan nan nan nan nan nan nan nan nan nan nan nan nan nan nan nan nan nan nan nan nan nan nan 46 50 51 50 45 nan nan nan 48 47 nan 43 nan 43 40 38 38 40 41
nan nan nan nan nan nan nan nan nan nan nan nan nan nan nan nan nan nan nan nan nan nan nan nan nan nan nan nan nan nan nan nan nan nan nan nan nan nan nan nan nan nan nan nan nan nan nan nan nan nan nan nan nan nan nan nan nan nan nan nan nan 46 46
nan nan nan nan nan nan nan nan nan nan nan nan nan nan nan nan nan nan nan nan nan nan nan nan nan nan nan nan nan nan nan nan nan nan nan nan nan nan nan nan nan nan nan nan nan nan nan nan nan nan nan nan nan nan nan nan nan 48 49 51 51 50 49
Wind_Direction
276 282 284 286 291 294 294 297 303 308 314 317 321 323 322 322 321 320 318 317 317 318 318 322 325 321 314 312 310 309 304 300 300 298 289 278 286 266 260 253 247 251 257 nan 259 270 262 265 265 256 249 263 268 nan nan nan nan nan nan nan 284 284 278
277 282 283 285 289 293 295 297 302 308 311 313 313 315 316 313 317 319 317 318 317 318 317 317 317 314 310 309 311 308 308 307 303 297 284 281 275 267 266 258 254 255 257 255 252 254 255 259 259 269 261 248 248 nan nan nan nan nan nan nan nan 285 282
269 274 283 289 294 296 297 301 306 303 305 309 313 313 313 315 316 317 318 317 314 313 315 317 312 311 310 305 308 308 306 306 300 297 294 282 274 268 273 269 268 261 258 254 249 250 244 nan nan 265 264 269 260 254 268 nan nan nan nan nan nan 282 280
268 272 275 282 289 292 300 302 304 307 309 313 315 317 317 317 317 317 317 315 313 313 314 310 306 304 302 301 303 302 296 301 298 296 293 284 278 275 274 273 272 273 275 271 262 255 252 249 251 nan 254 260 262 259 265 269 nan 270 nan nan nan nan 279
272 276 276 278 281 286 291 301 306 311 315 319 318 318 319 318 319 318 316 317 319 317 316 310 304 297 285 284 303 304 297 296 293 292 293 293 289 281 278 275 273 271 267 263 260 262 261 253 260 nan nan 250 242 247 249 261 nan 267 nan nan nan nan 278
nan nan nan 279 283 285 291 296 304 310 314 315 319 322 325 324 321 321 321 321 321 320 318 315 308 295 284 284 291 300 295 291 293 300 300 301 290 276 277 279 274 268 264 258 258 262 255 252 256 256 nan nan nan 249 247 254 257 259 nan nan nan nan 274
nan nan nan nan 283 289 293 295 302 312 317 321 324 327 328 327 324 324 324 325 323 321 318 317 312 304 302 294 287 287 292 289 282 278 282 287 283 283 274 273 271 267 261 262 264 262 258 254 250 255 255 nan nan nan nan 250 251 257 nan nan nan nan nan
nan nan nan nan nan nan nan nan 300 310 321 324 326 327 324 324 324 321 322 323 322 321 317 314 308 306 309 300 288 290 287 271 271 280 277 275 283 295 292 281 272 264 263 266 266 263 259 258 256 254 nan nan nan nan nan nan 251 262 259 nan nan nan nan
nan nan nan nan nan nan nan nan nan 295 311 325 326 324 323 321 321 318 319 321 322 319 309 304 303 294 298 295 287 288 291 286 279 265 258 257 261 270 274 271 272 267 261 260 264 266 261 255 252 253 nan nan nan nan nan nan nan 251 258 262 nan nan nan
nan nan nan nan nan nan nan nan nan nan 303 307 317 322 320 318 318 316 317 322 322 321 315 312 304 303 302 291 288 288 289 283 276 274 274 267 258 257 257 260 265 265 261 251 252 261 262 255 252 254 258 260 252 nan nan nan nan 254 258 nan nan nan nan
nan nan nan nan nan nan nan nan nan nan nan 307 308 306 313 319 322 321 321 323 324 321 318 310 301 298 294 282 279 287 286 279 275 266 262 260 260 263 262 266 269 261 260 261 258 260 264 261 257 256 256 253 251 254 nan nan nan 254 253 nan nan nan nan
nan nan nan nan nan nan nan nan nan nan nan nan nan nan 296 310 322 326 324 324 323 323 318 310 303 304 306 300 285 278 278 277 273 264 261 259 258 261 259 254 259 261 258 258 253 253 258 261 260 257 255 254 252 251 254 nan nan nan 249 nan nan nan nan
nan nan nan nan nan nan nan nan nan nan nan nan nan nan nan 295 309 321 323 326 326 323 322 319 313 315 314 309 305 298 286 276 273 267 259 258 253 256 257 254 252 253 254 254 257 256 255 259 263 260 258 257 254 254 nan nan nan 244 248 258 nan 265 nan
nan nan nan nan nan nan nan nan nan nan nan nan nan nan nan nan 297 299 309 322 325 323 320 317 316 314 311 309 306 300 287 280 275 271 269 263 255 250 254 255 253 256 255 257 256 256 254 260 264 263 261 259 258 257 257 nan nan nan nan 250 262 260 nan
nan nan nan nan nan nan nan nan nan nan nan nan nan nan nan nan nan 288 294 297 311 316 314 314 316 315 313 311 311 304 296 290 285 279 277 264 251 249 248 248 249 254 257 254 252 254 259 260 264 266 266 265 262 260 258 255 242 250 254 249 258 nan nan
nan nan nan nan nan nan nan nan nan nan nan nan nan nan nan nan nan nan nan 286 290 292 295 306 316 319 317 314 313 314 312 307 301 295 288 278 259 255 261 262 259 260 258 261 260 255 258 264 265 267 269 267 265 266 264 260 253 248 257 252 nan nan nan
nan nan nan nan nan nan nan nan nan nan nan nan nan nan nan nan nan nan nan nan 282 285 284 nan 274 272 270 nan 274 295 311 314 312 307 300 289 275 269 271 271 268 266 267 267 264 260 257 261 266 264 264 266 266 266 270 266 261 259 257 nan nan nan nan
nan nan nan nan nan nan nan nan nan nan nan nan nan nan nan nan nan nan nan nan nan nan nan nan 283 283 288 285 281 273 268 285 305 308 308 303 291 279 274 273 271 272 270 267 267 261 258 263 264 264 265 264 265 265 265 267 260 246 nan nan nan nan nan
nan nan nan nan nan nan nan nan nan nan nan nan nan nan nan nan nan nan nan nan nan nan nan nan nan nan 276 nan 278 nan nan nan nan 305 312 305 297 292 281 276 272 273 274 273 269 267 262 261 262 264 266 265 264 259 254 255 261 259 255 246 244 nan nan
nan nan nan nan nan nan nan nan nan nan nan nan nan nan nan nan nan nan nan nan nan nan nan nan nan nan nan nan 276 nan nan nan nan 285 301 301 298 297 293 281 275 275 279 278 275 272 268 261 261 263 263 264 260 260 261 255 258 257 254 252 244 237 241
nan nan nan nan nan nan nan nan nan nan nan nan nan nan nan nan nan nan nan nan nan nan nan nan nan nan nan nan nan nan 281 nan nan nan 291 298 299 300 297 289 284 285 282 280 280 274 269 265 264 264 262 261 262 263 262 253 253 256 253 249 243 237 239
nan nan nan nan nan nan nan nan nan nan nan nan nan nan nan nan nan nan nan nan nan nan nan nan nan nan nan nan nan nan nan nan nan nan nan 291 nan 296 293 290 290 286 282 286 286 283 283 280 271 266 262 261 263 266 262 255 251 251 251 250 247 nan nan
nan nan nan nan nan nan nan nan nan nan nan nan nan nan nan nan nan nan nan nan nan nan nan nan nan nan nan nan nan nan nan nan nan nan nan nan nan nan nan 293 294 301 294 289 291 290 289 287 276 268 263 263 263 262 260 258 256 254 251 252 252 250 nan
nan nan nan nan nan nan nan nan nan nan nan nan nan nan nan nan nan nan nan nan nan nan nan nan nan nan nan nan nan nan nan nan nan nan nan nan nan nan nan nan 289 298 303 302 295 291 282 283 280 275 271 268 266 267 265 261 257 259 256 255 250 247 nan
nan nan nan nan nan nan nan nan nan nan nan nan nan nan nan nan nan nan nan nan nan nan nan nan nan nan nan nan nan nan nan nan nan nan nan nan nan nan nan 286 291 295 nan 287 279 275 276 279 279 278 277 271 267 273 276 271 265 258 256 254 249 248 249
nan nan nan nan nan nan nan nan nan nan nan nan nan nan nan nan nan nan nan nan nan nan nan nan nan nan nan nan nan nan nan nan nan nan nan nan nan nan nan nan nan 287 285 292 286 278 274 275 281 285 278 276 274 276 276 274 268 261 256 256 258 253 nan
nan nan nan nan nan nan nan nan nan nan nan nan nan nan nan nan nan nan nan nan nan nan nan nan nan nan nan nan nan nan nan nan nan nan nan nan nan nan nan nan nan nan 281 280 280 282 279 272 273 277 274 268 266 271 276 275 272 267 266 260 260 nan nan
nan nan nan nan nan nan nan nan nan nan nan nan nan nan nan nan nan nan nan nan nan nan nan nan nan nan nan nan nan nan nan nan nan nan nan nan nan nan nan nan nan nan nan 278 279 nan nan 278 275 275 271 266 267 269 267 260 257 257 nan 254 253 nan nan
nan nan nan nan nan nan nan nan nan nan nan nan nan nan nan nan nan nan nan nan nan nan nan nan nan nan nan nan nan nan nan nan nan nan nan nan nan nan nan nan nan nan nan nan 281 nan 286 278 274 274 271 264 262 261 252 241 240 241 246 253 nan nan 243
nan nan nan nan nan nan nan nan nan nan nan nan nan nan nan nan nan nan nan nan nan nan nan nan nan nan nan nan nan nan nan nan nan nan nan nan nan nan nan nan nan nan nan nan nan nan 291 284 275 275 269 266 264 261 254 248 246 249 249 249 249 248 248
nan nan nan nan nan nan nan nan nan nan nan nan nan nan nan nan nan nan nan nan nan nan nan nan nan nan nan nan nan nan nan nan nan nan nan nan nan nan nan nan nan nan nan nan nan 292 289 281 nan 271 270 268 266 263 258 257 257 254 253 253 254 252 249
nan nan nan nan nan nan nan nan nan nan nan nan nan nan nan nan nan nan nan nan nan nan nan nan nan nan nan nan nan nan nan nan nan nan nan nan nan nan nan nan nan nan nan nan nan nan 287 280 nan nan 271 269 266 264 263 267 265 261 255 250 248 250 246
nan nan nan nan nan nan nan nan nan nan nan nan nan nan nan nan nan nan nan nan nan nan nan nan nan nan nan nan nan nan nan nan nan nan nan nan nan nan nan nan nan nan nan nan nan nan 294 288 278 276 274 270 268 261 259 259 257 258 254 251 250 251 251
nan nan nan nan nan nan nan nan nan nan nan nan nan nan nan nan nan nan nan nan nan nan nan nan nan nan nan nan nan nan nan nan nan nan nan nan nan nan nan nan nan nan nan nan nan 279 280 268 nan 266 265 266 259 259 255 252 251 254 254 251 248 247 246
nan nan nan nan nan nan nan nan nan nan nan nan nan nan nan nan nan nan nan nan nan nan nan nan nan nan nan nan nan nan nan nan nan nan nan nan nan nan nan nan nan nan nan nan 248 248 250 254 254 nan nan nan 251 247 nan 243 nan 244 242 239 239 237 238
nan nan nan nan nan nan nan nan nan nan nan nan nan nan nan nan nan nan nan nan nan nan nan nan nan nan nan nan nan nan nan nan nan nan nan nan nan nan nan nan nan nan nan nan nan nan nan nan nan nan nan nan nan nan nan nan nan nan nan nan nan 237 240
nan nan nan nan nan nan nan nan nan nan nan nan nan nan nan nan nan nan nan nan nan nan nan nan nan nan nan nan nan nan nan nan nan nan nan nan nan nan nan nan nan nan nan nan nan nan nan nan nan nan nan nan nan nan nan nan nan 233 235 238 240 244 248